[[{"header":{"parameterUnit":"m.s-1","parameterCategory":1,"la1":30.2991,"la2":30.254,"lo1":-89.0895,"lo2":-89.0444,"dy":0.0017,"dx":0.0017,"nx":28,"ny":28,"refTime":"2023-08-16T21:00:00:Z","depth":0,"parameterNumber":2,"parameterNumberName":"U-component_of_WINDS"},"data":[0,0,0,0,0,0,0,0,0,0,0,0,0,0,0,0,0,0,0,0,0,0,0,0,0,0,0,0,0,0,0,0,0,0,0,0,0,0,0,0,0,0,0,0,0,0,0,0,0,0,0,0,0,0,0,0,0,0,1.1799,1.18,0,1.1894,1.1895,1.1896,1.1911,1.191,1.191,1.1909,1.2006,1.2009,1.2012,0,0,0,0,0,0,0,0,0,0,0,0,0,1.1631,1.1634,1.1799,1.18,1.1801,1.1893,1.1895,1.1896,1.1911,1.191,1.1909,1.1908,1.2005,1.2009,1.2013,0,0,0,0,0,0,0,0,0,0,0,0,0,1.1713,1.1635,1.1799,1.182,1.1823,1.1893,1.1895,1.1896,1.1912,1.191,1.1909,1.1908,1.2003,1.2008,1.2013,1.2069,0,0,1.2029,1.2031,0,0,0,0,0,0,0,0,1.1708,1.1719,1.1816,1.1819,1.1822,1.1889,1.1871,1.1954,1.1912,1.1878,1.1909,1.1907,1.1968,1.1976,1.1996,1.2073,1.2077,1.2029,1.2032,1.2034,1.2036,0,0,0,0,0,0,0,1.1702,1.1715,1.1836,1.1817,1.1821,1.1825,1.1835,1.1887,1.1929,1.1881,1.1882,1.1893,1.1969,1.1991,1.1999,1.2079,1.2029,1.2033,1.2036,1.2038,1.2205,1.2206,0,0,0,0,0,0,1.1693,1.171,1.1833,1.1839,1.1761,1.1829,1.184,1.1869,1.1928,1.1936,1.1894,1.1893,1.1983,1.1993,1.2002,1.207,1.2034,1.2039,1.2042,1.2204,1.2205,1.2207,0,0,0,0,0,0,1.1689,1.1704,1.183,1.1775,1.1791,1.1833,1.1865,1.1871,1.1893,1.1938,1.1946,1.1909,1.1983,1.1995,1.2052,1.2073,1.2041,1.2046,1.2202,1.2204,1.2206,1.2206,0,0,0,0,0,0,1.1684,1.1702,1.1724,1.1775,1.1794,1.1877,1.1867,1.1874,1.1902,1.1902,1.1954,1.1961,1.1983,1.2044,1.2057,1.208,1.205,1.22,1.2203,1.2205,1.2204,1.2208,1.2211,0,0,0,0,0,1.1678,1.1721,1.1725,1.174,1.1822,1.1879,1.1889,1.1913,1.1904,1.1925,1.1954,1.196,1.2069,1.205,1.2064,1.2089,1.2199,1.2202,1.2205,1.2203,1.2207,1.2211,0,0,0,0,0,0,1.167,1.1728,1.1733,1.1793,1.1831,1.1881,1.1909,1.1917,1.1959,1.1957,1.1985,1.1996,1.2051,1.2076,1.2053,1.2145,1.2133,1.214,1.2127,1.2131,1.2134,1.2126,1.2054,0,0,0,0,0,1.1676,1.1717,1.1765,1.1813,1.1832,1.1867,1.1893,1.1908,1.1948,1.1964,1.1997,1.2036,1.2079,1.2107,1.2149,1.2209,1.2219,1.2233,1.2236,1.2239,1.2243,1.2275,1.2281,1.2217,1.2217,1.2217,0,0,1.1687,1.1723,1.1748,1.1813,1.1844,1.1885,1.1881,1.1925,1.1956,1.1971,1.2026,1.2052,1.2097,1.2155,1.2182,1.2177,1.2263,1.2243,1.2244,1.2248,1.2279,1.2285,1.229,1.222,1.2219,1.2219,0,0,1.1728,1.1761,1.1804,1.1835,1.1882,1.1905,1.1915,1.1965,1.1982,1.2038,1.2049,1.2087,1.2161,1.2192,1.2218,1.2271,1.2277,1.2284,1.2301,1.2332,1.2337,1.2341,1.2359,1.2365,1.2289,1.2289,1.2289,0,1.1736,1.1799,1.1825,1.1869,1.1896,1.1912,1.1955,1.1984,1.2043,1.2061,1.2055,1.2148,1.218,1.2244,1.2257,1.2278,1.229,1.2277,1.2334,1.2339,1.2344,1.236,1.2367,1.2289,1.2289,1.2289,1.2289,0,1.1806,1.185,1.1879,1.1934,1.1965,1.2009,1.2041,1.2069,1.2082,1.2106,1.2162,1.2201,1.225,1.2267,1.228,1.2334,1.2329,1.2328,1.2317,1.2349,1.2366,1.2372,1.229,1.229,1.229,1.229,0,0,1.1843,1.1912,1.1922,1.1947,1.2,1.2035,1.2079,1.2127,1.215,1.2191,1.2227,1.229,1.2289,1.2318,1.2335,1.2363,1.24,1.2359,1.236,1.2363,1.246,1.2458,1.2465,1.2405,1.2407,1.2408,1.2455,0,1.1889,1.1968,1.1992,1.2057,1.2098,1.2113,1.2152,1.2188,1.2212,1.2249,1.2276,1.2319,1.2316,1.2333,1.2361,1.239,1.2419,1.2387,1.2439,1.244,1.2425,1.2474,1.2473,1.2516,1.2462,1.2463,1.2464,0,1.1953,1.1993,1.2063,1.211,1.2128,1.2162,1.2207,1.2244,1.2285,1.2301,1.2333,1.2347,1.2394,1.2381,1.2444,1.2421,1.2445,1.2462,1.2464,1.2468,1.2453,1.2478,1.253,1.2536,1.2474,1.2474,1.2473,0,1.197,1.2043,1.2093,1.2115,1.2171,1.2195,1.2219,1.226,1.2287,1.2328,1.2346,1.2391,1.2416,1.2451,1.2477,1.2466,1.2538,1.2527,1.2551,1.255,1.2564,1.2562,1.2619,1.2582,1.2582,1.2582,1.2582,0,1.2018,1.2059,1.2102,1.2133,1.2179,1.2207,1.2253,1.2278,1.2314,1.235,1.2368,1.2401,1.2434,1.2472,1.2493,1.2542,1.2554,1.2567,1.2571,1.2564,1.2562,1.2578,1.2575,1.2583,1.2583,1.2583,1.2582,0,1.2045,1.2075,1.2131,1.218,1.2194,1.2226,1.2268,1.2298,1.2323,1.2368,1.2381,1.2419,1.2465,1.2495,1.2553,1.2567,1.2619,1.2625,1.2605,1.2607,1.2628,1.2625,1.2695,1.2705,1.2663,1.2663,1.2664,0,1.2072,1.2104,1.2157,1.2182,1.2207,1.2247,1.2275,1.2304,1.2332,1.2382,1.2406,1.2453,1.2491,1.2563,1.2596,1.2641,1.2646,1.2667,1.2652,1.2644,1.2644,1.2641,1.2644,1.2669,1.2669,1.267,1.267,0,1.2116,1.213,1.2169,1.2214,1.2247,1.2284,1.232,1.234,1.2375,1.2406,1.2453,1.2482,1.2542,1.2587,1.2635,1.266,1.267,1.2675,1.2682,1.2674,1.266,1.2666,1.2609,1.2672,1.2672,1.2672,1.2672,1.2672,1.2143,1.2172,1.2213,1.2256,1.2287,1.2321,1.2352,1.238,1.2419,1.2469,1.2484,1.2532,1.2573,1.2638,1.2664,1.2702,1.27,1.2711,1.2714,1.2715,1.2714,1.2656,1.2711,1.2711,1.2711,1.2711,1.2711,0,1.2187,1.2214,1.2254,1.2304,1.2338,1.2346,1.2387,1.2415,1.2457,1.2494,1.2531,1.2584,1.2628,1.2665,1.2711,1.2734,1.274,1.2745,1.2742,1.2748,1.2715,1.2703,1.2739,1.2739,1.2739,1.2739,1.2739,1.2739,1.2213,1.2262,1.228,1.2344,1.2372,1.2418,1.2441,1.2472,1.2502,1.256,1.2597,1.262,1.2657,1.2706,1.2747,1.2756,1.2772,1.2775,1.2786,1.2754,1.275,1.2747,1.2736,1.2779,1.2779,1.2816,1.2816,1.2816]},{"header":{"parameterUnit":"m.s-1","parameterCategory":1,"la1":30.2991,"la2":30.254,"lo1":-89.0895,"lo2":-89.0444,"dy":0.0017,"dx":0.0017,"nx":28,"ny":28,"refTime":"2023-08-16T21:00:00:Z","depth":0,"parameterNumber":3,"parameterNumberName":"V-component_of_WINDS"},"data":[0,0,0,0,0,0,0,0,0,0,0,0,0,0,0,0,0,0,0,0,0,0,0,0,0,0,0,0,0,0,0,0,0,0,0,0,0,0,0,0,0,0,0,0,0,0,0,0,0,0,0,0,0,0,0,0,0,0,1.8838,1.8837,0,1.8727,1.8726,1.8724,1.8632,1.8631,1.863,1.8629,1.8512,1.8509,1.8507,0,0,0,0,0,0,0,0,0,0,0,0,0,1.8966,1.8964,1.8838,1.8837,1.8835,1.8727,1.8726,1.8724,1.8632,1.8631,1.863,1.8629,1.8512,1.851,1.8507,0,0,0,0,0,0,0,0,0,0,0,0,0,1.8888,1.8964,1.8838,1.8777,1.877,1.8728,1.8726,1.8724,1.8633,1.8631,1.863,1.8628,1.8513,1.851,1.8507,1.8515,0,0,1.8496,1.8495,0,0,0,0,0,0,0,0,1.8893,1.8884,1.8787,1.8781,1.8773,1.8692,1.8728,1.8654,1.8633,1.8685,1.8629,1.8628,1.8573,1.8564,1.8546,1.851,1.8505,1.8496,1.8494,1.8493,1.8492,0,0,0,0,0,0,0,1.8899,1.8888,1.8794,1.8786,1.8777,1.8753,1.874,1.8713,1.8638,1.868,1.8673,1.8661,1.8568,1.855,1.8543,1.8503,1.8496,1.8493,1.8491,1.849,1.8465,1.8467,0,0,0,0,0,0,1.8914,1.8893,1.8797,1.8791,1.8831,1.8752,1.8738,1.872,1.8638,1.8624,1.8663,1.8658,1.8556,1.8547,1.8539,1.8541,1.8493,1.849,1.8488,1.8464,1.8466,1.8467,0,0,0,0,0,0,1.8917,1.8906,1.8802,1.884,1.8825,1.8751,1.8732,1.8718,1.8699,1.8625,1.8611,1.8658,1.8555,1.8543,1.8521,1.8536,1.8488,1.8485,1.8462,1.8465,1.8466,1.8549,0,0,0,0,0,0,1.8921,1.8908,1.8912,1.8841,1.8823,1.8788,1.8732,1.8717,1.8694,1.8687,1.8617,1.8604,1.8553,1.8527,1.8518,1.8531,1.8482,1.8461,1.8463,1.8466,1.8545,1.8554,1.8561,0,0,0,0,0,1.8926,1.8939,1.8912,1.8901,1.8826,1.879,1.8779,1.8722,1.8696,1.8698,1.865,1.8606,1.8537,1.8526,1.8515,1.8527,1.8459,1.8463,1.8466,1.8541,1.8552,1.8561,0,0,0,0,0,0,1.9012,1.8928,1.8898,1.8889,1.8847,1.8774,1.8775,1.8735,1.8699,1.8693,1.8622,1.8607,1.8592,1.8557,1.8547,1.853,1.8492,1.8493,1.8553,1.8563,1.8571,1.8579,1.848,0,0,0,0,0,1.903,1.9009,1.8936,1.8935,1.8916,1.8849,1.8831,1.879,1.8744,1.8725,1.8676,1.8631,1.8599,1.8579,1.8545,1.854,1.8522,1.8542,1.8551,1.8558,1.8559,1.8551,1.8559,1.8477,1.8477,1.8477,0,0,1.9067,1.9018,1.9009,1.8951,1.8914,1.8891,1.8835,1.8814,1.8796,1.8721,1.8698,1.866,1.8605,1.8591,1.8583,1.8562,1.8578,1.8562,1.8568,1.8565,1.8555,1.8563,1.857,1.8479,1.8479,1.8478,0,0,1.9122,1.9084,1.9078,1.9042,1.8987,1.8943,1.8942,1.8875,1.8847,1.8823,1.8766,1.8743,1.869,1.8652,1.8627,1.8667,1.8624,1.8658,1.8701,1.8695,1.8701,1.8707,1.8719,1.8725,1.866,1.866,1.8661,0,1.9174,1.9139,1.9079,1.9062,1.9037,1.897,1.8962,1.893,1.8866,1.885,1.8828,1.8759,1.8717,1.8693,1.8703,1.8685,1.868,1.8665,1.8706,1.871,1.8714,1.8726,1.8731,1.8665,1.8664,1.8664,1.8663,0,1.9205,1.9182,1.9183,1.9124,1.91,1.9087,1.9024,1.9006,1.8968,1.8926,1.8901,1.8849,1.8803,1.8794,1.8756,1.8764,1.8752,1.8719,1.8679,1.8727,1.8737,1.8741,1.8671,1.8669,1.8668,1.8667,0,0,1.931,1.9219,1.922,1.9192,1.9126,1.9106,1.909,1.9047,1.9032,1.899,1.8974,1.893,1.8899,1.8869,1.8826,1.8821,1.8854,1.8788,1.8785,1.88,1.8857,1.8882,1.8888,1.8826,1.8827,1.8828,1.8861,0,1.9352,1.9321,1.9266,1.9252,1.9228,1.9164,1.915,1.9107,1.9067,1.9041,1.8996,1.8965,1.8927,1.8909,1.8901,1.8852,1.8865,1.8849,1.8808,1.8807,1.8822,1.8893,1.8919,1.8954,1.8865,1.8866,1.8866,0,1.9398,1.9361,1.9345,1.928,1.9268,1.9256,1.9211,1.9187,1.9137,1.9108,1.9076,1.9029,1.9007,1.8972,1.8939,1.893,1.891,1.8884,1.8883,1.8876,1.8839,1.8886,1.8963,1.8968,1.8871,1.8871,1.8871,0,1.9474,1.9421,1.9403,1.9381,1.9306,1.9299,1.9267,1.9215,1.9192,1.9153,1.9136,1.9095,1.9071,1.9039,1.8981,1.8962,1.8954,1.8915,1.8928,1.8929,1.8928,1.8928,1.9001,1.8918,1.8918,1.8918,1.8918,0,1.9527,1.9519,1.9436,1.9425,1.9414,1.9351,1.9341,1.9302,1.9257,1.9236,1.9179,1.916,1.9086,1.9059,1.9013,1.8992,1.8982,1.8957,1.8944,1.8961,1.8964,1.8946,1.8941,1.8919,1.8919,1.8918,1.8918,0,1.9609,1.9554,1.953,1.9461,1.9444,1.9438,1.9378,1.9364,1.9321,1.9296,1.9286,1.9218,1.9182,1.9122,1.9069,1.9038,1.9025,1.9005,1.9042,1.9034,1.905,1.9049,1.9112,1.9117,1.9033,1.9034,1.9035,0,1.9646,1.9638,1.9568,1.9551,1.9521,1.9494,1.947,1.9408,1.9385,1.9328,1.932,1.9281,1.9245,1.9191,1.9136,1.9094,1.9072,1.9097,1.9065,1.9082,1.907,1.9071,1.9069,1.9104,1.9105,1.9106,1.9107,0,1.9715,1.9688,1.9657,1.9617,1.959,1.9555,1.9516,1.9505,1.9434,1.9411,1.9375,1.9348,1.9294,1.9254,1.9205,1.917,1.9126,1.9118,1.9118,1.9134,1.9156,1.9143,1.906,1.9116,1.9116,1.9115,1.9114,1.9114,1.9774,1.9764,1.9713,1.968,1.9645,1.961,1.9594,1.9549,1.9518,1.947,1.9435,1.9401,1.9349,1.9279,1.9246,1.9217,1.9198,1.9199,1.9199,1.9199,1.9205,1.9162,1.9208,1.9208,1.9208,1.9207,1.9207,0,1.984,1.9804,1.9775,1.9723,1.9697,1.966,1.9615,1.9595,1.9566,1.9523,1.9489,1.9447,1.9408,1.935,1.9307,1.9295,1.9273,1.9285,1.9284,1.9277,1.9226,1.9229,1.9303,1.9303,1.9303,1.9303,1.9303,1.9303,1.987,1.9851,1.9818,1.978,1.9743,1.971,1.9688,1.9655,1.962,1.9575,1.9544,1.9507,1.9457,1.9409,1.9371,1.9355,1.9341,1.9359,1.9336,1.9289,1.928,1.9272,1.9275,1.9356,1.9357,1.9389,1.9389,1.9389]}]]